Date String (YYYY-MM-DD hh:mm:ss) UTC,Instrument flags,Ambient pressure (hPa),Sample flow (lpm),Bypass flow (lpm),Sample temperature (°C),Ambient temperature (°C),ASC tube jacket temperature (°C),LED temperature (°C),Box temperature (°C),Sample RH (%),Span deviation,Mass concentration (μg/m³),Mass concentration (μg/m³),Mass concentration (μg/m³)
DateTimeUTC,F1_M11,P_M11,Q1_M11,Q2_M11,T1_M11,T2_M11,T3_M11,T4_M11,T5_M11,U1_M11,ZSPAN_M11,X0_M11,X2_M11,X1_M11
2022-11-07 05:00:00,,0827.6,5.01,0.00,23.0,21.7,00.0,31.8,24.9,11.5,0000.0,0010.28,0003.02,0001.82
2022-11-07 05:01:00,,0827.7,5.02,0.00,23.0,21.7,00.0,31.8,24.9,11.5,0000.0,0009.83,0002.95,0001.82
2022-11-07 05:02:00,,0827.5,5.00,0.00,23.0,21.7,00.0,31.8,24.9,11.5,0000.0,0008.49,0002.95,0001.82
2022-11-07 05:03:00,,0827.5,4.99,0.00,23.0,21.7,00.0,31.8,24.9,11.4,0000.0,0008.91,0003.01,0001.84
2022-11-07 05:04:00,,0827.5,4.99,0.00,23.0,21.7,00.0,31.8,24.9,11.2,0000.0,0009.14,0002.96,0001.86
2022-11-07 05:05:00,,0827.6,4.99,0.00,23.0,21.7,00.0,31.8,25.0,11.2,0000.0,0009.08,0002.96,0001.87
2022-11-07 05:06:00,,0827.5,5.00,0.00,23.0,21.7,00.0,31.8,24.9,11.2,0000.0,0008.39,0002.95,0001.87
2022-11-07 05:07:00,,0827.5,5.00,0.00,23.0,21.7,00.0,31.8,24.9,11.2,0000.0,0008.14,0003.03,0001.88
2022-11-07 05:08:00,,0827.5,5.00,0.00,23.0,21.7,00.0,31.8,25.0,11.2,0000.0,0008.61,0003.06,0001.89
2022-11-07 05:09:00,,0827.6,5.00,0.00,23.0,21.7,00.0,31.8,24.9,11.2,0000.0,0008.95,0003.11,0001.90
2022-11-07 05:10:00,,0827.6,5.00,0.00,23.0,21.7,00.0,31.8,24.9,11.1,0000.0,0009.95,0003.15,0001.90
2022-11-07 05:11:00,,0827.6,5.00,0.00,23.0,21.7,00.0,31.8,24.9,11.1,0000.0,0010.16,0003.22,0001.90
2022-11-07 05:12:00,,0827.6,5.00,0.00,23.0,21.7,00.0,31.8,24.9,11.1,0000.0,0011.53,0003.28,0001.91
2022-11-07 05:13:00,,0827.5,5.00,0.00,23.0,21.7,00.0,31.8,24.9,10.9,0000.0,0011.86,0003.27,0001.90
2022-11-07 05:14:00,,0827.5,4.99,0.00,23.0,21.7,00.0,31.8,24.9,10.8,0000.0,0011.15,0003.29,0001.86
2022-11-07 05:15:00,,0827.5,4.99,0.00,23.0,21.7,00.0,31.8,24.9,10.9,0000.0,0011.66,0003.32,0001.84
2022-11-07 05:16:00,,0827.5,5.01,0.00,23.0,21.7,00.0,31.8,24.9,10.9,0000.0,0012.10,0003.36,0001.81
2022-11-07 05:17:00,,0827.5,5.01,0.00,23.0,21.7,00.0,31.8,24.9,10.7,0000.0,0012.50,0003.37,0001.82
2022-11-07 05:18:00,,0827.5,5.00,0.00,23.0,21.7,00.0,31.8,24.9,10.9,0000.0,0012.57,0003.39,0001.81
2022-11-07 05:19:00,,0827.6,5.00,0.00,23.0,21.6,00.0,31.8,24.9,11.1,0000.0,0012.72,0003.41,0001.81
2022-11-07 05:20:00,,0827.6,5.00,0.00,23.0,21.6,00.0,31.8,24.9,11.3,0000.0,0013.28,0003.42,0001.80
2022-11-07 05:21:00,,0827.6,4.98,0.00,23.0,21.6,00.0,31.8,24.9,11.4,0000.0,0012.70,0003.41,0001.80
2022-11-07 05:22:00,,0827.6,4.99,0.00,23.0,21.6,00.0,31.8,24.9,11.4,0000.0,0012.61,0003.34,0001.80
2022-11-07 05:23:00,,0827.6,5.01,0.00,23.0,21.6,00.0,31.8,24.9,11.3,0000.0,0012.14,0003.31,0001.79
2022-11-07 05:24:00,,0827.5,5.01,0.00,23.0,21.6,00.0,31.8,24.9,11.3,0000.0,0013.24,0003.35,0001.78
2022-11-07 05:25:00,,0827.5,4.99,0.00,23.0,21.6,00.0,31.8,24.9,11.2,0000.0,0013.11,0003.32,0001.79
2022-11-07 05:26:00,,0827.5,4.99,0.00,23.0,21.6,00.0,31.7,24.9,11.2,0000.0,0012.53,0003.29,0001.80
2022-11-07 05:27:00,,0827.5,5.01,0.00,23.0,21.6,00.0,31.7,24.9,11.2,0000.0,0012.36,0003.26,0001.79
2022-11-07 05:28:00,,0827.5,5.00,0.00,23.0,21.6,00.0,31.8,24.9,11.2,0000.0,0012.34,0003.24,0001.78
2022-11-07 05:29:00,,0827.6,5.00,0.00,23.0,21.6,00.0,31.7,24.9,11.1,0000.0,0013.49,0003.24,0001.79
2022-11-07 05:30:00,,0827.6,5.00,0.00,23.0,21.6,00.0,31.7,24.9,11.1,0000.0,0013.33,0003.26,0001.79
2022-11-07 05:31:00,,0827.5,5.00,0.00,23.0,21.6,00.0,31.8,24.9,11.1,0000.0,0012.51,0003.29,0001.79
2022-11-07 05:32:00,,0827.5,5.00,0.00,23.0,21.6,00.0,31.8,24.8,11.1,0000.0,0013.73,0003.31,0001.79
2022-11-07 05:33:00,,0827.5,5.00,0.00,23.0,21.6,00.0,31.8,24.8,11.1,0000.0,0014.65,0003.30,0001.77
2022-11-07 05:34:00,,0827.5,5.00,0.00,23.0,21.6,00.0,31.7,24.9,11.1,0000.0,0014.03,0003.32,0001.77
2022-11-07 05:35:00,,0827.4,5.00,0.00,23.0,21.6,00.0,31.7,24.9,11.0,0000.0,0012.78,0003.33,0001.79
2022-11-07 05:36:00,,0827.4,4.99,0.00,23.0,21.6,00.0,31.7,24.9,11.0,0000.0,0013.00,0003.36,0001.81
2022-11-07 05:37:00,,0827.4,4.99,0.00,23.0,21.6,00.0,31.7,24.9,11.0,0000.0,0012.95,0003.40,0001.81
2022-11-07 05:38:00,,0827.4,5.00,0.00,22.9,21.5,00.0,31.7,24.9,11.0,0000.0,0013.63,0003.45,0001.83
2022-11-07 05:39:00,,0827.4,4.99,0.00,22.9,21.5,00.0,31.7,24.9,11.1,0000.0,0013.91,0003.46,0001.84
2022-11-07 05:40:00,,0827.4,5.01,0.00,22.9,21.5,00.0,31.7,24.9,11.1,0000.0,0015.30,0003.46,0001.83
2022-11-07 05:41:00,,0827.4,5.01,0.00,22.9,21.5,00.0,31.7,24.9,11.1,0000.0,0015.20,0003.45,0001.81
2022-11-07 05:42:00,,0827.4,4.99,0.00,22.9,21.5,00.0,31.7,24.9,11.1,0000.0,0016.27,0003.49,0001.83
2022-11-07 05:43:00,,0827.4,5.00,0.00,22.9,21.5,00.0,31.7,24.8,11.1,0000.0,0016.69,0003.55,0001.83
2022-11-07 05:44:00,,0827.4,5.01,0.00,22.9,21.5,00.0,31.7,24.8,11.1,0000.0,0016.54,0003.58,0001.84
2022-11-07 05:45:00,,0827.4,5.01,0.00,22.9,21.5,00.0,31.7,24.8,11.1,0000.0,0016.39,0003.55,0001.83
2022-11-07 05:46:00,,0827.4,5.00,0.00,22.9,21.5,00.0,31.7,24.8,11.1,0000.0,0016.20,0003.50,0001.81
2022-11-07 05:47:00,,0827.4,5.00,0.00,22.9,21.4,00.0,31.7,24.8,11.2,0000.0,0015.92,0003.43,0001.80
2022-11-07 05:48:00,,0827.4,5.00,0.00,22.9,21.4,00.0,31.7,24.8,11.2,0000.0,0015.85,0003.43,0001.81
2022-11-07 05:49:00,,0827.4,5.00,0.00,22.9,21.4,00.0,31.7,24.8,11.2,0000.0,0014.90,0003.38,0001.79
2022-11-07 05:50:00,,0827.4,4.99,0.00,22.9,21.4,00.0,31.7,24.8,11.2,0000.0,0014.67,0003.35,0001.78
2022-11-07 05:51:00,,0827.3,5.00,0.00,22.9,21.4,00.0,31.7,24.8,11.2,0000.0,0011.99,0003.34,0001.76
2022-11-07 05:52:00,,0827.4,5.00,0.00,22.9,21.4,00.0,31.7,24.7,11.2,0000.0,0011.96,0003.28,0001.76
2022-11-07 05:53:00,,0827.4,5.00,0.00,22.9,21.4,00.0,31.7,24.7,11.1,0000.0,0011.00,0003.18,0001.73
2022-11-07 05:54:00,,0827.4,5.00,0.00,22.9,21.4,00.0,31.7,24.7,11.1,0000.0,0009.50,0003.06,0001.72
2022-11-07 05:55:00,,0827.3,5.01,0.00,22.9,21.4,00.0,31.7,24.7,11.1,0000.0,0008.74,0002.99,0001.71
2022-11-07 05:56:00,,0827.3,5.01,0.00,22.9,21.4,00.0,31.7,24.7,11.0,0000.0,0009.31,0002.95,0001.71
2022-11-07 05:57:00,,0827.4,5.00,0.00,22.9,21.3,00.0,31.7,24.7,10.9,0000.0,0009.44,0002.89,0001.72
2022-11-07 05:58:00,,0827.4,4.98,0.00,22.8,21.3,00.0,31.7,24.7,10.9,0000.0,0009.85,0002.94,0001.73
2022-11-07 05:59:00,,0827.3,5.00,0.00,22.8,21.3,00.0,31.7,24.7,11.0,0000.0,0010.26,0002.87,0001.71
